User: anonymous   Login
Location: Dappach
(48.9767°N, 9.6998°E)
Time: 13:35:05
(UTC+00:00)
Language:

CZ-2C R/B - Orbit

View from above orbital plane
View from above orbital plane
View from above satellite
View from above satellite

Ground track
Ground track

The orbit data is extracted from the following two-line orbital elements,

1 31114U 07010B   24198.92492923  .00000321  00000-0  16782-3 0  9995
2 31114  98.3363 333.2607 0058366 241.2924 118.2379 14.19812842894451
Epoch (UTC): 16 July 2024 22:11:53
Eccentricity: 0.0058366
inclination: 98.3363°
perigee height: 784 km
apogee height: 868 km
right ascension of ascending node: 333.2607°
argument of perigee: 241.2924°
revolutions per day: 14.19812842
mean anomaly at epoch: 118.2379°
orbit number at epoch: 89445

The dashed part of the orbit path shows where the satellite is in the earth's shadow,  

DLR